Appleton, MN

6:59 PM CST on November 13, 2019 (GMT -0600)
Appleton Municipal

Weather History for KAQP - August, 2019

Change the Weather History Date:

Wednesday, August 28, 2019

  Actual Average Record
Temperature  
Mean Temperature 63 °F -  
Max Temperature 73 °F 77 °F 89 °F (2013)
Min Temperature 53 °F 55 °F 48 °F (2004)
Degree Days  
Heating Degree Days 2    
Growing Degree Days 13 (Base 50)    
Moisture  
Dew Point 51 °F    
Average Humidity 67    
Maximum Humidity 88    
Minimum Humidity 41    
Precipitation  
Precipitation 0.00 in - - ()
Sea Level Pressure  
Sea Level Pressure 29.91 in    
Wind  
Wind Speed 4 mph (WNW)    
Max Wind Speed 17 mph    
Max Gust Speed 28 mph    
Visibility 10 miles    
Events      
Averages and records for this station are not official NWS values.
T = Trace of Precipitation, MM = Missing Value Source: NWS Daily Summary

Daily Weather History Graph

Daily Weather History Graph

Search for Another Location

Airport or City:

Astronomy

Aug. 28, 2019 Rise Set
Actual Time 6:40 AM CDT 8:08 PM CDT
Civil Twilight 6:09 AM CDT 8:39 PM CDT
Nautical Twilight 5:32 AM CDT 9:16 PM CDT
Astronomical Twilight 4:52 AM CDT 9:56 PM CDT
Moon 4:05 AM CDT (8/28) 7:28 PM CDT (8/28)
Length of Visible Light 14h 29m
Length of Day
13h 28m
Waning Crescent, 4% of the Moon is Illuminated
Aug 28
Waning Crescent
Aug 30
New
Sep 5
First Quarter
Sep 13
Full
Sep 21
Last Quarter

Hourly Weather History & Observations

Time (CDT) Temp. Dew Point Humidity Pressure Visibility Wind Dir Wind Speed Gust Speed Precip Events Conditions
12:11 AM 57.2 °F 51.8 °F 82% 29.86 in 10.0 mi Calm Calm - N/A   Scattered Clouds
12:30 AM 59.0 °F 53.6 °F 82% 29.86 in 10.0 mi West 6.9 mph - N/A   Mostly Cloudy
12:50 AM 57.2 °F 51.8 °F 82% 29.86 in 10.0 mi West 5.8 mph - N/A   Scattered Clouds
1:10 AM 57.2 °F 51.8 °F 82% 29.86 in 10.0 mi Calm Calm - N/A   Clear
1:31 AM 57.2 °F 51.8 °F 82% 29.87 in 10.0 mi Calm Calm - N/A   Clear
1:51 AM 57.2 °F 51.8 °F 82% 29.87 in 10.0 mi Calm Calm - N/A   Clear
2:11 AM 57.2 °F 51.8 °F 82% 29.88 in 10.0 mi Calm Calm - N/A   Clear
2:31 AM 55.4 °F 51.8 °F 88% 29.88 in 10.0 mi Calm Calm - N/A   Clear
2:51 AM 55.4 °F 51.8 °F 88% 29.88 in 10.0 mi Calm Calm - N/A   Clear
3:11 AM 55.4 °F 50.0 °F 82% 29.89 in 10.0 mi Calm Calm - N/A   Clear
3:31 AM 55.4 °F 51.8 °F 88% 29.89 in 10.0 mi Calm Calm - N/A   Clear
3:51 AM 55.4 °F 51.8 °F 88% 29.89 in 10.0 mi Calm Calm - N/A   Clear
4:10 AM 55.4 °F 50.0 °F 82% 29.89 in 10.0 mi Calm Calm - N/A   Clear
4:31 AM 55.4 °F 50.0 °F 82% 29.89 in 10.0 mi Calm Calm - N/A   Clear
4:51 AM 55.4 °F 50.0 °F 82% 29.90 in 10.0 mi Calm Calm - N/A   Clear
5:10 AM 53.6 °F 48.2 °F 82% 29.90 in 10.0 mi Calm Calm - N/A   Clear
5:31 AM 53.6 °F 48.2 °F 82% 29.91 in 10.0 mi Calm Calm - N/A   Clear
5:50 AM 53.6 °F 50.0 °F 88% 29.91 in 10.0 mi Calm Calm - N/A   Clear
6:11 AM 53.6 °F 50.0 °F 88% 29.92 in 10.0 mi Calm Calm - N/A   Clear
6:31 AM 53.6 °F 48.2 °F 82% 29.92 in 10.0 mi Calm Calm - N/A   Clear
6:50 AM 53.6 °F 48.2 °F 82% 29.92 in 10.0 mi Calm Calm - N/A   Clear
7:11 AM 53.6 °F 50.0 °F 88% 29.93 in 10.0 mi Calm Calm - N/A   Clear
7:31 AM 53.6 °F 50.0 °F 88% 29.93 in 10.0 mi Calm Calm - N/A   Clear
7:50 AM 55.4 °F 51.8 °F 88% 29.94 in 10.0 mi Calm Calm - N/A   Clear
8:11 AM 55.4 °F 51.8 °F 88% 29.94 in 10.0 mi West 3.5 mph - N/A   Clear
8:30 AM 57.2 °F 51.8 °F 82% 29.94 in 10.0 mi West 10.4 mph 16.1 mph N/A   Clear
8:51 AM 59.0 °F 51.8 °F 77% 29.94 in 10.0 mi West 5.8 mph - N/A   Clear
9:10 AM 60.8 °F 51.8 °F 72% 29.95 in 10.0 mi West 11.5 mph 16.1 mph N/A   Clear
9:30 AM 62.6 °F 51.8 °F 68% 29.95 in 10.0 mi WNW 9.2 mph 18.4 mph N/A   Clear
9:51 AM 62.6 °F 51.8 °F 68% 29.95 in 10.0 mi WNW 10.4 mph 17.3 mph N/A   Clear
10:11 AM 64.4 °F 50.0 °F 59% 29.96 in 10.0 mi WNW 13.8 mph 19.6 mph N/A   Clear
10:31 AM 64.4 °F 48.2 °F 56% 29.96 in 10.0 mi WNW 15.0 mph 20.7 mph N/A   Clear
10:51 AM 64.4 °F 48.2 °F 56% 29.97 in 10.0 mi WNW 16.1 mph 19.6 mph N/A   Clear
11:11 AM 66.2 °F 48.2 °F 52% 29.97 in 10.0 mi WNW 15.0 mph 18.4 mph N/A   Clear
11:31 AM 66.2 °F 48.2 °F 52% 29.97 in 10.0 mi WNW 16.1 mph 19.6 mph N/A   Clear
11:51 AM 66.2 °F 48.2 °F 52% 29.97 in 10.0 mi NW 15.0 mph 20.7 mph N/A   Clear
12:10 PM 68.0 °F 46.4 °F 46% 29.97 in 10.0 mi WNW 17.3 mph 23.0 mph N/A   Clear
12:30 PM 68.0 °F 46.4 °F 46% 29.97 in 10.0 mi WNW 15.0 mph - N/A   Clear
12:51 PM 69.8 °F 48.2 °F 46% 29.97 in 10.0 mi West 12.7 mph 20.7 mph N/A   Clear
1:10 PM 69.8 °F 48.2 °F 46% 29.96 in 10.0 mi WNW 13.8 mph - N/A   Scattered Clouds
1:31 PM 69.8 °F 46.4 °F 43% 29.96 in 10.0 mi WNW 13.8 mph 21.9 mph N/A   Scattered Clouds
1:52 PM 71.6 °F 48.2 °F 43% 29.95 in 10.0 mi NW 9.2 mph 16.1 mph N/A   Scattered Clouds
2:11 PM 71.6 °F 48.2 °F 43% 29.95 in 10.0 mi WNW 17.3 mph 24.2 mph N/A   Scattered Clouds
2:31 PM 71.6 °F 46.4 °F 41% 29.95 in 10.0 mi WNW 13.8 mph 27.6 mph N/A   Clear
2:51 PM 73.4 °F 48.2 °F 41% 29.95 in 10.0 mi WNW 10.4 mph 19.6 mph N/A   Scattered Clouds
3:11 PM 73.4 °F 48.2 °F 41% 29.95 in 10.0 mi WNW 12.7 mph 19.6 mph N/A   Scattered Clouds
3:30 PM 73.4 °F 48.2 °F 41% 29.94 in 10.0 mi WNW 13.8 mph 18.4 mph N/A   Scattered Clouds
3:51 PM 73.4 °F 48.2 °F 41% 29.93 in 10.0 mi WNW 10.4 mph 20.7 mph N/A   Clear
4:11 PM 73.4 °F 48.2 °F 41% 29.93 in 10.0 mi West 10.4 mph - N/A   Clear
4:31 PM 73.4 °F 50.0 °F 44% 29.93 in 10.0 mi West 12.7 mph - N/A   Scattered Clouds
4:51 PM 71.6 °F 50.0 °F 46% 29.92 in 10.0 mi WNW 9.2 mph - N/A   Scattered Clouds
5:11 PM 71.6 °F 50.0 °F 46% 29.92 in 10.0 mi Calm Calm - N/A   Scattered Clouds
5:30 PM 73.4 °F 48.2 °F 41% 29.91 in 10.0 mi West 9.2 mph - N/A   Scattered Clouds
5:51 PM 73.4 °F 50.0 °F 44% 29.91 in 10.0 mi West 11.5 mph - N/A   Clear
6:11 PM 73.4 °F 50.0 °F 44% 29.91 in 10.0 mi West 10.4 mph - N/A   Clear
6:31 PM 71.6 °F 51.8 °F 50% 29.90 in 10.0 mi Calm Calm - N/A   Clear
6:50 PM 71.6 °F 51.8 °F 50% 29.89 in 10.0 mi Calm Calm - N/A   Clear
7:10 PM 69.8 °F 53.6 °F 56% 29.89 in 10.0 mi Calm Calm - N/A   Clear
7:30 PM 68.0 °F 55.4 °F 64% 29.89 in 10.0 mi Calm Calm - N/A   Clear
7:51 PM 66.2 °F 53.6 °F 64% 29.88 in 10.0 mi Calm Calm - N/A   Clear
8:11 PM 66.2 °F 53.6 °F 64% 29.88 in 10.0 mi Calm Calm - N/A   Clear
8:31 PM 64.4 °F 53.6 °F 68% 29.88 in 10.0 mi Calm Calm - N/A   Clear
8:51 PM 64.4 °F 55.4 °F 73% 29.88 in 10.0 mi Calm Calm - N/A   Clear
9:10 PM 62.6 °F 53.6 °F 72% 29.88 in 10.0 mi Calm Calm - N/A   Clear
9:30 PM 62.6 °F 55.4 °F 77% 29.88 in 10.0 mi Calm Calm - N/A   Clear
9:51 PM 62.6 °F 53.6 °F 72% 29.88 in 10.0 mi Calm Calm - N/A   Clear
10:11 PM 60.8 °F 53.6 °F 77% 29.88 in 10.0 mi Calm Calm - N/A   Clear
10:31 PM 60.8 °F 53.6 °F 77% 29.88 in 10.0 mi Calm Calm - N/A   Clear
10:51 PM 60.8 °F 53.6 °F 77% 29.88 in 10.0 mi Calm Calm - N/A   Clear
11:10 PM 60.8 °F 53.6 °F 77% 29.87 in 10.0 mi Calm Calm - N/A   Clear
11:31 PM 59.0 °F 53.6 °F 82% 29.86 in 10.0 mi Calm Calm - N/A   Clear
11:51 PM 60.8 °F 53.6 °F 77% 29.85 in 10.0 mi Calm Calm - N/A   Clear